Time,TemperatureF,DewpointF,PressureIn,WindDirection,WindDirectionDegrees,WindSpeedMPH,WindSpeedGustMPH,Humidity,HourlyPrecipIn,Conditions,Clouds,dailyrainin,SoftwareType,DateUTC
2013-07-12 00:01:00,69.0,69.0,29.95,West,270,0.0,0.0,100,0.00,,---,0.00,VWS V14.00,2013-07-12 04:01:00,
2013-07-12 00:02:00,69.0,69.0,29.95,West,270,0.0,0.0,100,0.00,,---,0.00,VWS V14.00,2013-07-12 04:02:00,
2013-07-12 00:07:00,69.0,69.0,29.95,West,270,0.0,0.0,100,0.00,,---,0.00,VWS V14.00,2013-07-12 04:07:00,
2013-07-12 00:12:00,68.9,68.9,29.96,West,270,0.0,0.0,100,0.00,,---,0.00,VWS V14.00,2013-07-12 04:12:00,
2013-07-12 00:17:00,68.9,68.9,29.96,West,270,0.0,0.0,100,0.00,,---,0.00,VWS V14.00,2013-07-12 04:17:00,
2013-07-12 00:22:00,68.7,68.7,29.96,West,270,0.0,0.0,100,0.00,,---,0.00,VWS V14.00,2013-07-12 04:22:00,
2013-07-12 00:27:00,68.7,68.7,29.96,West,270,0.0,0.0,100,0.00,,---,0.00,VWS V14.00,2013-07-12 04:27:00,
2013-07-12 00:32:00,68.7,68.7,29.95,West,270,0.0,0.0,100,0.00,,---,0.00,VWS V14.00,2013-07-12 04:32:00,
2013-07-12 00:37:00,68.5,68.5,29.95,West,270,0.0,0.0,100,0.00,,---,0.00,VWS V14.00,2013-07-12 04:37:00,
2013-07-12 00:42:00,68.5,68.5,29.95,West,270,0.0,0.0,100,0.00,,---,0.00,VWS V14.00,2013-07-12 04:42:00,
2013-07-12 00:47:00,68.5,68.5,29.95,West,270,0.0,0.0,100,0.00,,---,0.00,VWS V14.00,2013-07-12 04:47:00,
2013-07-12 00:52:00,68.3,68.3,29.95,West,270,0.0,0.0,100,0.00,,---,0.00,VWS V14.00,2013-07-12 04:52:00,
2013-07-12 00:57:00,68.3,68.3,29.95,West,270,0.0,0.0,100,0.00,,---,0.00,VWS V14.00,2013-07-12 04:57:00,
2013-07-12 01:02:00,68.3,68.3,29.95,West,270,0.0,0.0,100,0.00,,---,0.00,VWS V14.00,2013-07-12 05:02:00,
2013-07-12 01:07:00,68.5,68.5,29.95,West,270,0.0,0.0,100,0.00,,---,0.00,VWS V14.00,2013-07-12 05:07:00,
2013-07-12 01:12:00,68.5,68.5,29.95,West,270,0.0,0.0,100,0.00,,---,0.00,VWS V14.00,2013-07-12 05:12:00,
2013-07-12 01:17:00,68.3,68.3,29.95,West,270,0.0,0.0,100,0.00,,---,0.00,VWS V14.00,2013-07-12 05:17:00,
2013-07-12 01:22:00,68.3,68.3,29.95,West,270,0.0,0.0,100,0.00,,---,0.00,VWS V14.00,2013-07-12 05:22:00,
2013-07-12 01:27:00,68.3,68.3,29.95,West,270,0.0,0.0,100,0.00,,---,0.00,VWS V14.00,2013-07-12 05:27:00,
2013-07-12 01:32:00,68.3,68.3,29.95,West,270,0.0,0.0,100,0.00,,---,0.00,VWS V14.00,2013-07-12 05:32:00,
2013-07-12 01:37:00,68.3,68.3,29.95,West,270,0.0,0.0,100,0.00,,---,0.00,VWS V14.00,2013-07-12 05:37:00,
2013-07-12 01:42:00,68.1,68.1,29.95,West,270,0.0,0.0,100,0.00,,---,0.00,VWS V14.00,2013-07-12 05:42:00,
2013-07-12 01:47:00,68.1,68.1,29.95,West,270,0.0,0.0,100,0.00,,---,0.00,VWS V14.00,2013-07-12 05:47:00,
2013-07-12 01:52:00,68.1,68.1,29.95,West,270,0.0,0.0,100,0.00,,---,0.00,VWS V14.00,2013-07-12 05:52:00,
2013-07-12 01:57:00,68.0,68.0,29.95,West,270,0.0,0.0,100,0.00,,---,0.00,VWS V14.00,2013-07-12 05:57:00,
2013-07-12 02:02:00,67.8,67.8,29.94,West,270,0.0,0.0,100,0.00,,---,0.00,VWS V14.00,2013-07-12 06:02:00,
2013-07-12 02:08:00,67.8,67.8,29.95,West,270,0.0,0.0,100,0.00,,---,0.00,VWS V14.00,2013-07-12 06:08:00,
2013-07-12 02:13:00,67.8,67.8,29.95,West,270,0.0,0.0,100,0.00,,---,0.00,VWS V14.00,2013-07-12 06:13:00,
2013-07-12 02:18:00,67.8,67.8,29.95,West,270,0.0,0.0,100,0.00,,---,0.00,VWS V14.00,2013-07-12 06:18:00,
2013-07-12 02:23:00,67.6,67.6,29.95,West,270,0.0,0.0,100,0.00,,---,0.00,VWS V14.00,2013-07-12 06:23:00,
2013-07-12 02:28:00,67.6,67.6,29.95,West,270,0.0,0.0,100,0.00,,---,0.00,VWS V14.00,2013-07-12 06:28:00,
2013-07-12 02:33:00,67.6,67.6,29.95,West,270,0.0,0.0,100,0.00,,---,0.00,VWS V14.00,2013-07-12 06:33:00,
2013-07-12 02:38:00,67.2,67.2,29.95,West,270,0.0,0.0,100,0.00,,---,0.00,VWS V14.00,2013-07-12 06:38:00,
2013-07-12 02:43:00,67.2,67.2,29.94,West,270,0.0,0.0,100,0.00,,---,0.00,VWS V14.00,2013-07-12 06:43:00,
2013-07-12 02:48:00,67.2,67.2,29.94,West,270,0.0,0.0,100,0.00,,---,0.00,VWS V14.00,2013-07-12 06:48:00,
2013-07-12 02:53:00,67.2,67.2,29.94,West,270,0.0,0.0,100,0.00,,---,0.00,VWS V14.00,2013-07-12 06:53:00,
2013-07-12 02:58:00,67.2,67.2,29.94,West,270,0.0,0.0,100,0.00,,---,0.00,VWS V14.00,2013-07-12 06:58:00,
2013-07-12 03:03:00,67.1,67.1,29.94,West,270,0.0,0.0,100,0.00,,---,0.00,VWS V14.00,2013-07-12 07:03:00,
2013-07-12 03:08:00,67.1,67.1,29.94,West,270,0.0,0.0,100,0.00,,---,0.00,VWS V14.00,2013-07-12 07:08:00,
2013-07-12 03:13:00,67.1,67.1,29.94,West,270,0.0,0.0,100,0.00,,---,0.00,VWS V14.00,2013-07-12 07:13:00,
2013-07-12 03:18:00,66.9,66.9,29.94,West,270,0.0,0.0,100,0.00,,---,0.00,VWS V14.00,2013-07-12 07:18:00,
2013-07-12 03:23:00,66.9,66.9,29.94,West,270,0.0,0.0,100,0.00,,---,0.00,VWS V14.00,2013-07-12 07:23:00,
2013-07-12 03:28:00,67.1,67.1,29.94,West,270,0.0,0.0,100,0.00,,---,0.00,VWS V14.00,2013-07-12 07:28:00,
2013-07-12 03:33:00,67.1,67.1,29.94,West,270,0.0,0.0,100,0.00,,---,0.00,VWS V14.00,2013-07-12 07:33:00,
2013-07-12 03:38:00,67.1,67.1,29.94,West,270,0.0,0.0,100,0.00,,---,0.00,VWS V14.00,2013-07-12 07:38:00,
2013-07-12 03:43:00,67.1,67.1,29.94,West,270,0.0,0.0,100,0.00,,---,0.00,VWS V14.00,2013-07-12 07:43:00,
2013-07-12 03:48:00,67.1,67.1,29.94,West,270,0.0,0.0,100,0.00,,---,0.00,VWS V14.00,2013-07-12 07:48:00,
2013-07-12 03:54:00,67.2,67.2,29.93,West,270,0.0,0.0,100,0.00,,---,0.00,VWS V14.00,2013-07-12 07:54:00,
2013-07-12 03:59:00,67.1,67.1,29.93,West,270,0.0,0.0,100,0.00,,---,0.00,VWS V14.00,2013-07-12 07:59:00,
2013-07-12 04:04:00,67.1,67.1,29.93,West,270,0.0,0.0,100,0.00,,---,0.00,VWS V14.00,2013-07-12 08:04:00,
2013-07-12 04:09:00,67.1,67.1,29.93,West,270,0.0,0.0,100,0.00,,---,0.00,VWS V14.00,2013-07-12 08:09:00,
2013-07-12 04:14:00,66.9,66.9,29.93,West,270,0.0,0.0,100,0.00,,---,0.00,VWS V14.00,2013-07-12 08:14:00,
2013-07-12 04:19:00,66.9,66.9,29.93,West,270,0.0,0.0,100,0.00,,---,0.00,VWS V14.00,2013-07-12 08:19:00,
2013-07-12 04:24:00,66.9,66.9,29.93,West,270,0.0,0.0,100,0.00,,---,0.00,VWS V14.00,2013-07-12 08:24:00,
2013-07-12 04:29:00,66.9,66.9,29.93,West,270,0.0,0.0,100,0.00,,---,0.00,VWS V14.00,2013-07-12 08:29:00,
2013-07-12 04:34:00,66.7,66.7,29.93,West,270,0.0,0.0,100,0.00,,---,0.00,VWS V14.00,2013-07-12 08:34:00,
2013-07-12 04:39:00,66.7,66.7,29.93,West,270,0.0,0.0,100,0.00,,---,0.00,VWS V14.00,2013-07-12 08:39:00,
2013-07-12 04:44:00,66.7,66.7,29.93,West,270,0.0,0.0,100,0.00,,---,0.00,VWS V14.00,2013-07-12 08:44:00,
2013-07-12 04:49:00,66.5,66.5,29.93,West,270,0.0,0.0,100,0.00,,---,0.00,VWS V14.00,2013-07-12 08:49:00,
2013-07-12 04:54:00,66.5,66.5,29.93,West,270,0.0,0.0,100,0.00,,---,0.00,VWS V14.00,2013-07-12 08:54:00,
2013-07-12 04:59:00,66.5,66.5,29.93,West,270,0.0,0.0,100,0.00,,---,0.00,VWS V14.00,2013-07-12 08:59:00,
2013-07-12 05:04:00,66.7,66.7,29.93,West,270,0.0,0.0,100,0.00,,---,0.00,VWS V14.00,2013-07-12 09:04:00,
2013-07-12 05:09:00,66.7,66.7,29.93,West,270,0.0,0.0,100,0.00,,---,0.00,VWS V14.00,2013-07-12 09:09:00,
2013-07-12 05:14:00,66.7,66.7,29.93,West,270,0.0,0.0,100,0.00,,---,0.00,VWS V14.00,2013-07-12 09:14:00,
2013-07-12 05:19:00,66.7,66.7,29.93,West,270,0.0,0.0,100,0.00,,---,0.00,VWS V14.00,2013-07-12 09:19:00,
2013-07-12 05:24:00,66.5,66.5,29.93,West,270,0.0,0.0,100,0.00,,---,0.00,VWS V14.00,2013-07-12 09:24:00,
2013-07-12 05:29:00,66.5,66.5,29.94,West,270,0.0,0.0,100,0.00,,---,0.00,VWS V14.00,2013-07-12 09:29:00,
2013-07-12 05:34:00,66.3,66.3,29.94,West,270,0.0,0.0,100,0.00,,---,0.00,VWS V14.00,2013-07-12 09:34:00,
2013-07-12 05:39:00,66.3,66.3,29.93,West,270,0.0,0.0,100,0.00,,---,0.00,VWS V14.00,2013-07-12 09:39:00,
2013-07-12 05:44:00,66.2,66.2,29.93,West,270,0.0,0.0,100,0.00,,---,0.00,VWS V14.00,2013-07-12 09:44:00,
2013-07-12 05:49:00,66.2,66.2,29.94,West,270,0.0,0.0,100,0.00,,---,0.00,VWS V14.00,2013-07-12 09:49:00,
2013-07-12 05:54:00,66.0,66.0,29.94,West,270,0.0,0.0,100,0.00,,---,0.00,VWS V14.00,2013-07-12 09:54:00,
2013-07-12 05:59:00,66.0,66.0,29.94,West,270,0.0,0.0,100,0.00,,---,0.00,VWS V14.00,2013-07-12 09:59:00,
2013-07-12 06:04:00,66.0,66.0,29.94,West,270,0.0,0.0,100,0.00,,---,0.00,VWS V14.00,2013-07-12 10:04:00,
2013-07-12 06:09:00,66.0,66.0,29.94,West,270,0.0,0.0,100,0.00,,---,0.00,VWS V14.00,2013-07-12 10:09:00,
2013-07-12 06:14:00,66.0,66.0,29.94,West,270,0.0,0.0,100,0.00,,---,0.00,VWS V14.00,2013-07-12 10:14:00,
2013-07-12 06:19:00,65.8,65.8,29.94,West,270,0.0,0.0,100,0.00,,---,0.00,VWS V14.00,2013-07-12 10:19:00,
2013-07-12 06:24:00,65.8,65.8,29.94,West,270,0.0,0.0,100,0.00,,---,0.00,VWS V14.00,2013-07-12 10:24:00,
2013-07-12 06:29:00,65.8,65.8,29.94,West,270,0.0,0.0,100,0.00,,---,0.00,VWS V14.00,2013-07-12 10:29:00,
2013-07-12 06:34:00,65.8,65.8,29.94,West,270,0.0,0.0,100,0.00,,---,0.00,VWS V14.00,2013-07-12 10:34:00,
2013-07-12 06:40:00,65.8,65.8,29.94,West,270,0.0,0.0,100,0.00,,---,0.00,VWS V14.00,2013-07-12 10:40:00,
2013-07-12 06:45:00,65.8,65.8,29.94,West,270,0.0,0.0,100,0.00,,---,0.00,VWS V14.00,2013-07-12 10:45:00,
2013-07-12 06:50:00,65.6,65.6,29.95,West,270,0.0,0.0,100,0.00,,---,0.00,VWS V14.00,2013-07-12 10:50:00,
2013-07-12 06:55:00,65.8,65.8,29.94,West,270,0.0,0.0,100,0.00,,---,0.00,VWS V14.00,2013-07-12 10:55:00,
2013-07-12 07:00:00,66.0,66.0,29.95,West,270,0.0,0.0,100,0.00,,---,0.00,VWS V14.00,2013-07-12 11:00:00,
2013-07-12 07:05:00,66.0,66.0,29.94,West,270,0.0,0.0,100,0.00,,---,0.00,VWS V14.00,2013-07-12 11:05:00,
2013-07-12 07:10:00,66.2,66.2,29.94,West,270,0.0,0.0,100,0.00,,---,0.00,VWS V14.00,2013-07-12 11:10:00,
2013-07-12 07:15:00,66.3,66.3,29.95,West,270,0.0,0.0,100,0.00,,---,0.00,VWS V14.00,2013-07-12 11:15:00,
2013-07-12 07:20:00,66.5,66.5,29.95,West,270,0.0,0.0,100,0.00,,---,0.00,VWS V14.00,2013-07-12 11:20:00,
2013-07-12 07:25:00,66.5,66.5,29.95,West,270,0.0,0.0,100,0.00,,---,0.00,VWS V14.00,2013-07-12 11:25:00,
2013-07-12 07:30:00,66.7,66.7,29.95,West,270,0.0,0.0,100,0.00,,---,0.00,VWS V14.00,2013-07-12 11:30:00,
2013-07-12 07:35:00,66.7,66.7,29.95,West,270,0.0,0.0,100,0.00,,---,0.00,VWS V14.00,2013-07-12 11:35:00,
2013-07-12 07:40:00,66.9,66.9,29.95,West,270,0.0,0.0,100,0.00,,---,0.00,VWS V14.00,2013-07-12 11:40:00,
2013-07-12 07:45:00,66.9,66.9,29.95,West,270,0.0,0.0,100,0.00,,---,0.00,VWS V14.00,2013-07-12 11:45:00,
2013-07-12 07:50:00,66.9,66.9,29.96,West,270,0.0,0.0,100,0.00,,---,0.00,VWS V14.00,2013-07-12 11:50:00,
2013-07-12 07:55:00,67.2,67.2,29.96,West,270,0.0,0.0,100,0.00,,---,0.00,VWS V14.00,2013-07-12 11:55:00,
2013-07-12 08:00:00,67.6,67.6,29.97,West,270,0.0,0.0,100,0.00,,---,0.00,VWS V14.00,2013-07-12 12:00:00,
2013-07-12 08:05:00,67.8,67.8,29.97,West,270,0.0,0.0,100,0.00,,---,0.00,VWS V14.00,2013-07-12 12:05:00,
2013-07-12 08:10:00,67.8,67.8,29.96,West,270,0.0,0.0,100,0.00,,---,0.00,VWS V14.00,2013-07-12 12:10:00,
2013-07-12 08:15:00,68.0,68.0,29.97,West,270,0.0,0.0,100,0.00,,---,0.00,VWS V14.00,2013-07-12 12:15:00,
2013-07-12 08:20:00,68.1,68.1,29.97,West,270,0.0,0.0,100,0.00,,---,0.00,VWS V14.00,2013-07-12 12:20:00,
2013-07-12 08:25:00,68.1,68.1,29.97,West,270,0.0,0.0,100,0.00,,---,0.00,VWS V14.00,2013-07-12 12:25:00,
2013-07-12 08:30:00,68.1,68.1,29.97,West,270,0.0,0.0,100,0.00,,---,0.00,VWS V14.00,2013-07-12 12:30:00,
2013-07-12 08:35:00,68.1,68.1,29.97,West,270,0.0,0.0,100,0.00,,---,0.00,VWS V14.00,2013-07-12 12:35:00,
2013-07-12 08:40:00,68.5,68.5,29.97,West,270,0.0,0.0,100,0.00,,---,0.00,VWS V14.00,2013-07-12 12:40:00,
2013-07-12 08:45:00,69.4,69.4,29.97,ENE,68,0.0,0.0,100,0.00,,---,0.00,VWS V14.00,2013-07-12 12:45:00,
2013-07-12 08:50:00,69.6,69.6,29.97,ENE,68,0.0,0.0,100,0.00,,---,0.00,VWS V14.00,2013-07-12 12:50:00,
2013-07-12 08:55:00,69.9,69.9,29.97,ENE,68,0.0,0.0,100,0.00,,---,0.00,VWS V14.00,2013-07-12 12:55:00,
2013-07-12 09:00:00,70.5,70.5,29.97,ENE,68,0.0,0.0,100,0.00,,---,0.00,VWS V14.00,2013-07-12 13:00:00,
2013-07-12 09:05:00,71.2,71.2,29.97,ENE,68,0.0,0.0,100,0.00,,---,0.00,VWS V14.00,2013-07-12 13:05:00,
2013-07-12 09:10:00,71.9,71.9,29.97,ENE,68,0.0,0.0,100,0.00,,---,0.00,VWS V14.00,2013-07-12 13:10:00,
2013-07-12 09:15:00,73.0,73.0,29.97,ENE,68,0.0,0.0,100,0.00,,---,0.00,VWS V14.00,2013-07-12 13:15:00,
2013-07-12 09:20:00,74.1,74.1,29.97,ENE,68,0.0,0.0,100,0.00,,---,0.00,VWS V14.00,2013-07-12 13:20:00,
2013-07-12 09:25:00,75.7,75.1,29.98,ENE,68,0.0,0.0,98,0.00,,---,0.00,VWS V14.00,2013-07-12 13:25:00,
2013-07-12 09:30:00,76.1,75.2,29.98,ENE,68,0.0,0.0,97,0.00,,---,0.00,VWS V14.00,2013-07-12 13:30:00,
2013-07-12 09:35:00,76.1,74.9,29.98,ENE,68,0.0,0.0,96,0.00,,---,0.00,VWS V14.00,2013-07-12 13:35:00,
2013-07-12 09:40:00,76.1,74.9,29.97,ENE,68,0.0,0.0,96,0.00,,---,0.00,VWS V14.00,2013-07-12 13:40:00,
2013-07-12 09:45:00,77.1,75.6,29.98,NW,315,0.0,0.0,95,0.00,,---,0.00,VWS V14.00,2013-07-12 13:45:00,
2013-07-12 09:50:00,77.9,75.7,29.97,NW,315,0.0,0.0,93,0.00,,---,0.00,VWS V14.00,2013-07-12 13:50:00,
2013-07-12 09:55:00,78.6,75.8,29.98,North,0,0.0,0.0,91,0.00,,---,0.00,VWS V14.00,2013-07-12 13:55:00,
2013-07-12 10:00:00,79.1,75.9,29.98,WNW,292,0.0,0.0,90,0.00,,---,0.00,VWS V14.00,2013-07-12 14:00:00,
2013-07-12 10:05:00,79.7,76.2,29.98,WNW,292,0.0,0.0,89,0.00,,---,0.00,VWS V14.00,2013-07-12 14:05:00,
2013-07-12 10:10:00,80.7,76.8,29.97,WNW,292,0.0,0.0,88,0.00,,---,0.00,VWS V14.00,2013-07-12 14:10:00,
2013-07-12 10:15:00,81.3,77.1,29.98,WNW,292,0.0,0.0,87,0.00,,---,0.00,VWS V14.00,2013-07-12 14:15:00,
2013-07-12 10:20:00,82.0,77.4,29.97,WNW,292,0.0,0.0,86,0.00,,---,0.00,VWS V14.00,2013-07-12 14:20:00,
2013-07-12 10:26:00,82.2,76.9,29.98,SSW,202,0.0,0.0,84,0.00,,---,0.00,VWS V14.00,2013-07-12 14:26:00,
2013-07-12 10:31:00,82.2,76.9,29.98,West,270,0.0,0.0,84,0.00,,---,0.00,VWS V14.00,2013-07-12 14:31:00,
2013-07-12 10:36:00,82.0,75.6,29.98,North,0,0.0,0.2,81,0.00,,---,0.00,VWS V14.00,2013-07-12 14:36:00,
2013-07-12 10:41:00,81.6,75.2,29.97,North,0,1.3,1.3,81,0.00,,---,0.00,VWS V14.00,2013-07-12 14:41:00,
2013-07-12 10:46:00,81.1,73.6,29.98,NE,45,1.7,1.7,78,0.00,,---,0.00,VWS V14.00,2013-07-12 14:46:00,
2013-07-12 10:51:00,80.7,74.7,29.97,ENE,68,0.0,0.0,82,0.00,,---,0.00,VWS V14.00,2013-07-12 14:51:00,
2013-07-12 10:56:00,81.3,75.7,29.98,SE,135,0.0,0.0,83,0.00,,---,0.00,VWS V14.00,2013-07-12 14:56:00,
2013-07-12 11:01:00,82.0,76.3,29.97,ESE,112,0.2,0.2,83,0.00,,---,0.00,VWS V14.00,2013-07-12 15:01:00,
2013-07-12 11:06:00,82.2,76.2,29.98,WSW,248,0.0,0.2,82,0.00,,---,0.00,VWS V14.00,2013-07-12 15:06:00,
2013-07-12 11:11:00,82.7,75.9,29.98,WSW,248,0.0,0.0,80,0.00,,---,0.00,VWS V14.00,2013-07-12 15:11:00,
2013-07-12 11:16:00,82.2,74.3,29.97,NNE,22,0.0,3.5,77,0.00,,---,0.00,VWS V14.00,2013-07-12 15:16:00,
2013-07-12 11:21:00,82.2,74.7,29.97,East,90,0.0,0.0,78,0.00,,---,0.00,VWS V14.00,2013-07-12 15:21:00,
2013-07-12 11:26:00,82.0,72.9,29.97,NE,45,6.4,6.4,74,0.00,,---,0.00,VWS V14.00,2013-07-12 15:26:00,
2013-07-12 11:31:00,81.5,73.6,29.97,ENE,68,0.0,0.0,77,0.00,,---,0.00,VWS V14.00,2013-07-12 15:31:00,
2013-07-12 11:36:00,81.8,75.0,29.98,North,0,4.0,4.0,80,0.00,,---,0.00,VWS V14.00,2013-07-12 15:36:00,
2013-07-12 11:41:00,81.8,73.9,29.98,NW,315,0.0,0.0,77,0.00,,---,0.00,VWS V14.00,2013-07-12 15:41:00,
2013-07-12 11:46:00,82.2,75.0,29.97,WNW,292,0.0,0.0,79,0.00,,---,0.00,VWS V14.00,2013-07-12 15:46:00,
2013-07-12 11:51:00,82.9,75.3,29.97,WSW,248,0.0,0.0,78,0.00,,---,0.00,VWS V14.00,2013-07-12 15:51:00,
2013-07-12 11:56:00,83.1,75.2,29.97,ENE,68,0.0,0.0,77,0.00,,---,0.00,VWS V14.00,2013-07-12 15:56:00,
2013-07-12 12:01:00,83.6,76.0,29.96,WSW,248,0.0,0.0,78,0.00,,---,0.00,VWS V14.00,2013-07-12 16:01:00,
2013-07-12 12:06:00,84.0,76.4,29.97,WNW,292,0.0,0.0,78,0.00,,---,0.00,VWS V14.00,2013-07-12 16:06:00,
2013-07-12 12:11:00,84.0,76.0,29.97,East,90,0.0,0.0,77,0.00,,---,0.00,VWS V14.00,2013-07-12 16:11:00,
2013-07-12 12:16:00,84.3,76.7,29.96,North,0,0.0,0.0,78,0.00,,---,0.00,VWS V14.00,2013-07-12 16:16:00,
2013-07-12 12:21:00,84.3,75.5,29.97,ENE,68,1.1,1.1,75,0.00,,---,0.00,VWS V14.00,2013-07-12 16:21:00,
2013-07-12 12:26:00,84.5,76.1,29.96,NW,315,0.0,1.1,76,0.00,,---,0.00,VWS V14.00,2013-07-12 16:26:00,
2013-07-12 12:31:00,84.5,74.9,29.96,ENE,68,0.0,0.0,73,0.00,,---,0.00,VWS V14.00,2013-07-12 16:31:00,
2013-07-12 12:36:00,84.5,75.7,29.96,NW,315,0.0,0.0,75,0.00,,---,0.00,VWS V14.00,2013-07-12 16:36:00,
2013-07-12 12:41:00,84.9,76.5,29.96,North,0,0.0,0.0,76,0.00,,---,0.00,VWS V14.00,2013-07-12 16:41:00,
2013-07-12 12:46:00,84.7,76.3,29.96,NW,315,0.0,0.0,76,0.00,,---,0.00,VWS V14.00,2013-07-12 16:46:00,
2013-07-12 12:52:00,85.1,77.1,29.96,WNW,292,0.0,0.0,77,0.00,,---,0.00,VWS V14.00,2013-07-12 16:52:00,
2013-07-12 12:57:00,85.4,77.8,29.96,SSE,158,0.0,0.0,78,0.00,,---,0.00,VWS V14.00,2013-07-12 16:57:00,
2013-07-12 13:02:00,86.5,77.2,29.96,South,180,0.0,0.0,74,0.00,,---,0.00,VWS V14.00,2013-07-12 17:02:00,
2013-07-12 13:07:00,86.1,76.8,29.96,NW,315,0.0,0.0,74,0.00,,---,0.00,VWS V14.00,2013-07-12 17:07:00,
2013-07-12 13:12:00,85.6,76.4,29.96,SW,225,3.8,3.8,74,0.00,,---,0.00,VWS V14.00,2013-07-12 17:12:00,
2013-07-12 13:17:00,84.7,75.5,29.96,NNE,22,0.0,3.8,74,0.00,,---,0.00,VWS V14.00,2013-07-12 17:17:00,
2013-07-12 13:23:00,84.0,75.6,29.96,NNW,338,0.0,0.0,76,0.00,,---,0.00,VWS V14.00,2013-07-12 17:23:00,
2013-07-12 13:28:00,83.1,74.8,29.95,North,0,0.0,0.0,76,0.00,,---,0.00,VWS V14.00,2013-07-12 17:28:00,
2013-07-12 13:33:00,82.7,74.4,29.95,SSW,202,1.1,1.1,76,0.00,,---,0.00,VWS V14.00,2013-07-12 17:33:00,
2013-07-12 13:38:00,82.9,74.9,29.95,SE,135,0.0,1.1,77,0.00,,---,0.00,VWS V14.00,2013-07-12 17:38:00,
2013-07-12 13:43:00,84.0,75.6,29.95,NE,45,0.0,0.0,76,0.00,,---,0.00,VWS V14.00,2013-07-12 17:43:00,
2013-07-12 13:48:00,84.3,75.1,29.95,SE,135,0.0,1.1,74,0.00,,---,0.00,VWS V14.00,2013-07-12 17:48:00,
2013-07-12 13:53:00,85.1,75.9,29.95,SSW,202,0.0,0.0,74,0.00,,---,0.00,VWS V14.00,2013-07-12 17:53:00,
2013-07-12 13:58:00,85.1,75.5,29.95,NNW,338,0.0,0.4,73,0.00,,---,0.00,VWS V14.00,2013-07-12 17:58:00,
2013-07-12 14:03:00,84.3,75.1,29.95,NNW,338,0.0,0.0,74,0.00,,---,0.00,VWS V14.00,2013-07-12 18:03:00,
2013-07-12 14:08:00,83.6,75.6,29.95,West,270,0.0,0.0,77,0.00,,---,0.00,VWS V14.00,2013-07-12 18:08:00,
2013-07-12 14:13:00,83.3,74.9,29.95,WSW,248,0.0,0.0,76,0.00,,---,0.00,VWS V14.00,2013-07-12 18:13:00,
2013-07-12 14:19:00,83.4,75.4,29.95,WSW,248,0.0,0.0,77,0.00,,---,0.00,VWS V14.00,2013-07-12 18:19:00,
2013-07-12 14:24:00,83.1,75.2,29.95,WSW,248,0.0,0.0,77,0.00,,---,0.00,VWS V14.00,2013-07-12 18:24:00,
2013-07-12 14:29:00,82.7,74.8,29.95,WSW,248,0.0,0.0,77,0.00,,---,0.00,VWS V14.00,2013-07-12 18:29:00,
2013-07-12 14:34:00,82.7,74.8,29.95,WSW,248,0.0,0.0,77,0.00,,---,0.00,VWS V14.00,2013-07-12 18:34:00,
2013-07-12 14:39:00,82.5,74.6,29.95,WSW,248,0.0,0.0,77,0.00,,---,0.00,VWS V14.00,2013-07-12 18:39:00,
2013-07-12 14:44:00,82.2,74.7,29.95,WSW,248,0.0,0.0,78,0.00,,---,0.00,VWS V14.00,2013-07-12 18:44:00,
2013-07-12 14:49:00,82.0,74.8,29.96,WSW,248,0.0,0.0,79,0.00,,---,0.00,VWS V14.00,2013-07-12 18:49:00,
2013-07-12 14:54:00,82.0,75.2,29.95,WSW,248,0.0,0.0,80,0.00,,---,0.00,VWS V14.00,2013-07-12 18:54:00,
2013-07-12 14:59:00,81.6,74.8,29.95,SSE,158,0.0,0.0,80,0.00,,---,0.00,VWS V14.00,2013-07-12 18:59:00,
2013-07-12 15:04:00,81.5,74.7,29.95,South,180,0.0,0.0,80,0.00,,---,0.00,VWS V14.00,2013-07-12 19:04:00,
2013-07-12 15:10:00,81.3,74.5,29.95,South,180,0.0,0.0,80,0.00,,---,0.00,VWS V14.00,2013-07-12 19:10:00,
2013-07-12 15:15:00,80.7,74.0,29.95,NNW,338,0.0,0.0,80,0.00,,---,0.00,VWS V14.00,2013-07-12 19:15:00,
2013-07-12 15:20:00,80.2,73.8,29.95,NNW,338,0.0,0.0,81,0.00,,---,0.00,VWS V14.00,2013-07-12 19:20:00,
2013-07-12 15:25:00,79.5,73.2,29.95,NNW,338,0.0,0.0,81,0.00,,---,0.00,VWS V14.00,2013-07-12 19:25:00,
2013-07-12 15:30:00,78.9,73.3,29.96,North,0,0.0,0.0,83,0.00,,---,0.00,VWS V14.00,2013-07-12 19:30:00,
2013-07-12 15:35:00,78.0,73.1,29.96,NE,45,0.0,0.0,85,0.00,,---,0.00,VWS V14.00,2013-07-12 19:35:00,
2013-07-12 15:40:00,77.5,72.6,29.96,SE,135,0.0,0.0,85,0.00,,---,0.00,VWS V14.00,2013-07-12 19:40:00,
2013-07-12 15:45:00,77.1,72.6,29.96,NNE,22,0.0,0.0,86,0.00,,---,0.00,VWS V14.00,2013-07-12 19:45:00,
2013-07-12 15:50:00,76.8,72.3,29.95,WSW,248,0.0,0.0,86,0.00,,---,0.00,VWS V14.00,2013-07-12 19:50:00,
2013-07-12 15:55:00,76.6,72.4,29.96,SE,135,0.0,0.0,87,0.00,,---,0.00,VWS V14.00,2013-07-12 19:55:00,
2013-07-12 16:00:00,76.8,72.6,29.96,ESE,112,0.0,0.0,87,0.00,,---,0.00,VWS V14.00,2013-07-12 20:00:00,
2013-07-12 16:06:00,76.6,72.4,29.95,SE,135,0.0,0.0,87,0.00,,---,0.00,VWS V14.00,2013-07-12 20:06:00,
2013-07-12 16:11:00,77.1,72.9,29.94,WSW,248,0.0,0.0,87,0.00,,---,0.00,VWS V14.00,2013-07-12 20:11:00,
2013-07-12 16:16:00,77.5,73.3,29.95,WSW,248,0.0,0.0,87,0.00,,---,0.00,VWS V14.00,2013-07-12 20:16:00,
2013-07-12 16:21:00,77.7,73.5,29.94,WSW,248,0.0,0.0,87,0.00,,---,0.00,VWS V14.00,2013-07-12 20:21:00,
2013-07-12 16:26:00,78.0,73.5,29.93,SE,135,0.0,0.0,86,0.00,,---,0.00,VWS V14.00,2013-07-12 20:26:00,
2013-07-12 16:31:00,78.4,73.5,29.94,SE,135,0.0,0.0,85,0.00,,---,0.00,VWS V14.00,2013-07-12 20:31:00,
2013-07-12 16:36:00,78.6,73.7,29.94,SE,135,0.0,0.0,85,0.00,,---,0.00,VWS V14.00,2013-07-12 20:36:00,
2013-07-12 16:41:00,78.6,73.4,29.94,West,270,0.0,0.0,84,0.00,,---,0.00,VWS V14.00,2013-07-12 20:41:00,
2013-07-12 16:46:00,78.6,73.0,29.94,SW,225,0.0,0.0,83,0.00,,---,0.00,VWS V14.00,2013-07-12 20:46:00,
2013-07-12 16:51:00,78.4,72.8,29.95,SSW,202,0.0,0.0,83,0.00,,---,0.00,VWS V14.00,2013-07-12 20:51:00,
2013-07-12 16:56:00,78.4,72.8,29.95,SSW,202,0.0,0.0,83,0.00,,---,0.00,VWS V14.00,2013-07-12 20:56:00,
2013-07-12 17:02:00,77.3,71.4,29.95,SSE,158,0.0,0.0,82,0.00,,---,0.00,VWS V14.00,2013-07-12 21:02:00,
2013-07-12 17:07:00,76.8,71.6,29.95,SSE,158,0.0,0.0,84,0.00,,---,0.00,VWS V14.00,2013-07-12 21:07:00,
2013-07-12 17:12:00,76.1,71.3,29.95,SSE,158,0.0,0.0,85,0.00,,---,0.00,VWS V14.00,2013-07-12 21:12:00,
2013-07-12 17:17:00,75.3,70.5,29.94,SSE,158,0.0,0.0,85,0.00,,---,0.00,VWS V14.00,2013-07-12 21:17:00,
2013-07-12 17:22:00,75.0,70.5,29.95,SSE,158,0.0,0.0,86,0.00,,---,0.00,VWS V14.00,2013-07-12 21:22:00,
2013-07-12 17:27:00,74.4,70.3,29.95,WNW,292,2.9,2.9,87,0.00,,---,0.00,VWS V14.00,2013-07-12 21:27:00,
2013-07-12 17:32:00,73.7,69.6,29.96,NNW,338,0.0,0.0,87,0.00,,---,0.00,VWS V14.00,2013-07-12 21:32:00,
2013-07-12 17:37:00,73.2,69.1,29.96,SSE,158,0.0,0.8,87,0.00,,---,0.00,VWS V14.00,2013-07-12 21:37:00,
2013-07-12 17:43:00,72.5,68.4,29.98,North,0,0.0,0.0,87,0.00,,---,0.00,VWS V14.00,2013-07-12 21:43:00,
2013-07-12 17:48:00,72.1,68.0,29.98,ENE,68,0.0,0.0,87,0.00,,---,0.00,VWS V14.00,2013-07-12 21:48:00,
2013-07-12 17:53:00,71.6,67.5,29.98,SSW,202,0.0,0.0,87,0.00,,---,0.00,VWS V14.00,2013-07-12 21:53:00,
2013-07-12 17:58:00,71.2,67.1,29.99,NE,45,0.0,0.0,87,0.00,,---,0.00,VWS V14.00,2013-07-12 21:58:00,
2013-07-12 18:03:00,70.5,66.4,30.01,WSW,248,4.2,4.2,87,0.00,,---,0.00,VWS V14.00,2013-07-12 22:03:00,
2013-07-12 18:08:00,70.3,66.6,29.99,WNW,292,0.0,4.2,88,0.00,,---,0.00,VWS V14.00,2013-07-12 22:08:00,
2013-07-12 18:13:00,70.3,66.2,29.98,WNW,292,0.0,0.0,87,0.00,,---,0.00,VWS V14.00,2013-07-12 22:13:00,
2013-07-12 18:19:00,70.3,66.6,29.99,WNW,292,0.0,0.0,88,0.00,,---,0.00,VWS V14.00,2013-07-12 22:19:00,
2013-07-12 18:24:00,70.5,66.4,29.99,WNW,292,0.0,0.0,87,0.00,,---,0.00,VWS V14.00,2013-07-12 22:24:00,
2013-07-12 18:29:00,70.3,65.9,29.99,NW,315,0.0,0.0,86,0.00,,---,0.00,VWS V14.00,2013-07-12 22:29:00,
2013-07-12 18:34:00,70.3,65.9,29.98,WNW,292,0.0,0.0,86,0.00,,---,0.00,VWS V14.00,2013-07-12 22:34:00,
2013-07-12 18:39:00,70.3,65.9,29.98,NW,315,0.0,0.0,86,0.00,,---,0.00,VWS V14.00,2013-07-12 22:39:00,
2013-07-12 18:44:00,70.3,66.2,29.99,WNW,292,0.0,0.0,87,0.00,,---,0.00,VWS V14.00,2013-07-12 22:44:00,
2013-07-12 18:49:00,69.9,65.9,29.98,WNW,292,0.0,0.0,87,0.00,,---,0.00,VWS V14.00,2013-07-12 22:49:00,
2013-07-12 18:55:00,69.9,65.9,29.99,WNW,292,0.0,0.0,87,0.00,,---,0.00,VWS V14.00,2013-07-12 22:55:00,
2013-07-12 19:00:00,69.4,65.4,30.00,NW,315,0.0,0.0,87,0.00,,---,0.00,VWS V14.00,2013-07-12 23:00:00,
2013-07-12 19:05:00,69.0,65.3,29.99,WNW,292,0.0,0.0,88,0.00,,---,0.00,VWS V14.00,2013-07-12 23:05:00,
2013-07-12 19:10:00,68.7,65.0,29.99,WNW,292,0.0,0.0,88,0.00,,---,0.00,VWS V14.00,2013-07-12 23:10:00,
2013-07-12 19:15:00,68.5,64.8,29.99,WNW,292,0.0,0.0,88,0.00,,---,0.00,VWS V14.00,2013-07-12 23:15:00,
2013-07-12 19:20:00,68.3,64.9,30.00,WNW,292,0.0,0.0,89,0.00,,---,0.00,VWS V14.00,2013-07-12 23:20:00,
2013-07-12 19:25:00,68.1,64.7,30.00,WNW,292,0.0,0.0,89,0.00,,---,0.00,VWS V14.00,2013-07-12 23:25:00,
2013-07-12 19:30:00,67.8,64.4,30.00,WNW,292,0.0,0.0,89,0.00,,---,0.00,VWS V14.00,2013-07-12 23:30:00,
2013-07-12 19:35:00,67.8,64.8,30.00,WNW,292,0.0,0.0,90,0.00,,---,0.00,VWS V14.00,2013-07-12 23:35:00,
2013-07-12 19:41:00,67.8,64.8,30.01,WNW,292,0.0,0.0,90,0.00,,---,0.00,VWS V14.00,2013-07-12 23:41:00,
2013-07-12 19:46:00,67.6,64.9,30.00,WNW,292,0.0,0.0,91,0.00,,---,0.00,VWS V14.00,2013-07-12 23:46:00,
2013-07-12 19:51:00,67.6,64.9,30.00,WNW,292,0.0,0.0,91,0.00,,---,0.00,VWS V14.00,2013-07-12 23:51:00,
2013-07-12 19:56:00,67.4,64.7,30.00,WNW,292,0.0,0.0,91,0.00,,---,0.00,VWS V14.00,2013-07-12 23:56:00,
2013-07-12 20:01:00,67.4,64.7,30.00,WNW,292,0.0,0.0,91,0.00,,---,0.00,VWS V14.00,2013-07-13 00:01:00,
2013-07-12 20:06:00,67.2,64.5,29.99,WNW,292,0.0,0.0,91,0.00,,---,0.00,VWS V14.00,2013-07-13 00:06:00,
2013-07-12 20:11:00,67.2,64.5,30.00,WNW,292,0.0,0.0,91,0.00,,---,0.00,VWS V14.00,2013-07-13 00:11:00,
2013-07-12 20:16:00,67.2,64.5,30.01,WNW,292,0.0,0.0,91,0.00,,---,0.00,VWS V14.00,2013-07-13 00:16:00,
2013-07-12 20:21:00,67.2,64.5,30.01,WNW,292,0.0,0.0,91,0.00,,---,0.00,VWS V14.00,2013-07-13 00:21:00,
2013-07-12 20:26:00,67.2,64.8,30.00,WNW,292,0.0,0.0,92,0.00,,---,0.00,VWS V14.00,2013-07-13 00:26:00,
2013-07-12 20:31:00,67.1,64.4,30.00,WNW,292,0.0,0.0,91,0.00,,---,0.00,VWS V14.00,2013-07-13 00:31:00,
2013-07-12 20:36:00,66.9,64.2,30.00,WNW,292,0.0,0.0,91,0.00,,---,0.00,VWS V14.00,2013-07-13 00:36:00,
2013-07-12 20:41:00,66.7,64.3,30.00,WNW,292,0.0,0.0,92,0.00,,---,0.00,VWS V14.00,2013-07-13 00:41:00,
2013-07-12 20:46:00,66.5,64.1,30.00,WNW,292,0.0,0.0,92,0.00,,---,0.00,VWS V14.00,2013-07-13 00:46:00,
2013-07-12 20:52:00,66.3,63.9,30.00,WNW,292,0.0,0.0,92,0.00,,---,0.00,VWS V14.00,2013-07-13 00:52:00,
2013-07-12 20:57:00,66.0,63.6,30.00,WNW,292,0.0,0.0,92,0.00,,---,0.00,VWS V14.00,2013-07-13 00:57:00,
2013-07-12 21:02:00,65.8,63.7,29.99,WNW,292,0.0,0.0,93,0.00,,---,0.00,VWS V14.00,2013-07-13 01:02:00,
2013-07-12 21:07:00,65.6,63.2,30.00,WNW,292,0.0,0.0,92,0.00,,---,0.00,VWS V14.00,2013-07-13 01:07:00,
2013-07-12 21:12:00,65.3,63.2,29.99,WNW,292,0.0,0.0,93,0.00,,---,0.00,VWS V14.00,2013-07-13 01:12:00,
2013-07-12 21:17:00,65.1,63.0,29.99,WNW,292,0.0,0.0,93,0.00,,---,0.00,VWS V14.00,2013-07-13 01:17:00,
2013-07-12 21:22:00,65.1,63.3,29.99,WNW,292,0.0,0.0,94,0.00,,---,0.00,VWS V14.00,2013-07-13 01:22:00,
2013-07-12 21:28:00,64.7,62.9,29.99,WNW,292,0.0,0.0,94,0.00,,---,0.00,VWS V14.00,2013-07-13 01:28:00,
2013-07-12 21:33:00,64.5,62.7,30.00,WNW,292,0.0,0.0,94,0.00,,---,0.00,VWS V14.00,2013-07-13 01:33:00,
2013-07-12 21:38:00,64.5,63.0,30.00,WNW,292,0.0,0.0,95,0.00,,---,0.00,VWS V14.00,2013-07-13 01:38:00,
2013-07-12 21:43:00,64.2,62.7,30.00,WNW,292,0.0,0.0,95,0.00,,---,0.00,VWS V14.00,2013-07-13 01:43:00,
2013-07-12 21:48:00,64.2,63.0,30.01,WNW,292,0.0,0.0,96,0.00,,---,0.00,VWS V14.00,2013-07-13 01:48:00,
2013-07-12 21:53:00,64.0,62.8,30.01,WNW,292,0.0,0.0,96,0.00,,---,0.00,VWS V14.00,2013-07-13 01:53:00,
2013-07-12 21:59:00,64.0,62.8,30.01,WNW,292,0.0,0.0,96,0.00,,---,0.00,VWS V14.00,2013-07-13 01:59:00,
2013-07-12 22:04:00,63.8,62.6,30.01,WNW,292,0.0,0.0,96,0.00,,---,0.00,VWS V14.00,2013-07-13 02:04:00,
2013-07-12 22:09:00,63.8,62.6,30.02,WNW,292,0.0,0.0,96,0.00,,---,0.00,VWS V14.00,2013-07-13 02:09:00,
2013-07-12 22:14:00,63.8,62.6,30.03,WNW,292,0.0,0.0,96,0.00,,---,0.00,VWS V14.00,2013-07-13 02:14:00,
2013-07-12 22:19:00,64.0,63.1,30.03,WNW,292,0.0,0.0,97,0.00,,---,0.00,VWS V14.00,2013-07-13 02:19:00,
2013-07-12 22:24:00,64.2,63.3,30.03,WNW,292,0.0,0.0,97,0.00,,---,0.00,VWS V14.00,2013-07-13 02:24:00,
2013-07-12 22:29:00,64.2,63.3,30.03,WNW,292,0.0,0.0,97,0.00,,---,0.00,VWS V14.00,2013-07-13 02:29:00,
2013-07-12 22:35:00,64.2,63.3,30.03,WNW,292,0.0,0.0,97,0.00,,---,0.00,VWS V14.00,2013-07-13 02:35:00,
2013-07-12 22:40:00,64.2,63.3,30.03,WNW,292,0.0,0.0,97,0.00,,---,0.00,VWS V14.00,2013-07-13 02:40:00,
2013-07-12 22:45:00,64.2,63.3,30.03,WNW,292,0.0,0.0,97,0.00,,---,0.00,VWS V14.00,2013-07-13 02:45:00,
2013-07-12 22:50:00,64.0,63.1,30.03,WNW,292,0.0,0.0,97,0.00,,---,0.00,VWS V14.00,2013-07-13 02:50:00,
2013-07-12 22:55:00,64.0,63.1,30.04,WNW,292,0.0,0.0,97,0.00,,---,0.00,VWS V14.00,2013-07-13 02:55:00,
2013-07-12 23:00:00,64.0,63.4,30.03,WNW,292,0.0,0.0,98,0.00,,---,0.00,VWS V14.00,2013-07-13 03:00:00,
2013-07-12 23:05:00,64.0,63.4,30.04,WNW,292,0.0,0.0,98,0.00,,---,0.00,VWS V14.00,2013-07-13 03:05:00,
2013-07-12 23:10:00,64.0,63.4,30.03,WNW,292,0.0,0.0,98,0.00,,---,0.00,VWS V14.00,2013-07-13 03:10:00,
2013-07-12 23:15:00,64.0,63.4,30.04,WNW,292,0.0,0.0,98,0.00,,---,0.00,VWS V14.00,2013-07-13 03:15:00,
2013-07-12 23:20:00,64.2,63.6,30.03,WNW,292,0.0,0.0,98,0.00,,---,0.00,VWS V14.00,2013-07-13 03:20:00,
2013-07-12 23:25:00,64.2,63.9,30.04,WNW,292,0.0,0.0,99,0.00,,---,0.00,VWS V14.00,2013-07-13 03:25:00,
2013-07-12 23:30:00,64.2,63.9,30.04,WNW,292,0.0,0.0,99,0.00,,---,0.00,VWS V14.00,2013-07-13 03:30:00,
2013-07-12 23:35:00,64.2,63.9,30.04,WNW,292,0.0,0.0,99,0.00,,---,0.00,VWS V14.00,2013-07-13 03:35:00,
2013-07-12 23:41:00,64.4,64.1,30.04,WNW,292,0.0,0.0,99,0.00,,---,0.00,VWS V14.00,2013-07-13 03:41:00,
2013-07-12 23:46:00,64.5,64.2,30.04,WNW,292,0.0,0.0,99,0.00,,---,0.00,VWS V14.00,2013-07-13 03:46:00,
2013-07-12 23:51:00,64.5,64.2,30.04,WNW,292,0.0,0.0,99,0.00,,---,0.00,VWS V14.00,2013-07-13 03:51:00,
2013-07-12 23:56:00,64.7,64.4,30.04,West,270,0.0,0.0,99,0.00,,---,0.00,VWS V14.00,2013-07-13 03:56:00,